ACA1111 CYXE-CYVR

Flight info

Callsign ACA1111
Flight time N/A
Altitude 36000
Route OVATA DCT BORIX DCT SPRAE DCT BOOTH CANUC6
Aircraft A320/M-SDE3FGHIRWY/LB1

Departure

Time N/A
Airport Saskatoon John G. Diefenbaker International Airport (CYXE)

Arrival

Time 2026-05-04 01:30
Airport Vancouver International Airport (CYVR)
Time Latitude Longitude Altitude Speed Heading
2026-05-04 00:22 51.57117 -112.18627 35896 ft 436 kts 264°
2026-05-04 00:22 51.56373 -112.23352 35859 ft 436 kts 264°
2026-05-04 00:22 51.54877 -112.32801 35885 ft 437 kts 264°
2026-05-04 00:23 51.53374 -112.42265 35887 ft 438 kts 264°
2026-05-04 00:23 51.51855 -112.51752 35879 ft 439 kts 264°
2026-05-04 00:24 51.50320 -112.61261 35879 ft 440 kts 264°
2026-05-04 00:24 51.48776 -112.70773 35860 ft 440 kts 264°
2026-05-04 00:25 51.47224 -112.80278 35882 ft 441 kts 263°
2026-05-04 00:25 51.45662 -112.89803 35888 ft 442 kts 263°
2026-05-04 00:26 51.44086 -112.99348 35888 ft 444 kts 263°
2026-05-04 00:26 51.42496 -113.08912 35889 ft 445 kts 263°
2026-05-04 00:27 51.40903 -113.18489 35897 ft 445 kts 263°
2026-05-04 00:27 51.39299 -113.28073 35900 ft 446 kts 263°
2026-05-04 00:28 51.37679 -113.37671 35903 ft 447 kts 263°
2026-05-04 00:28 51.36048 -113.47276 35912 ft 448 kts 263°
2026-05-04 00:29 51.34407 -113.56885 35915 ft 448 kts 263°
2026-05-04 00:29 51.32773 -113.66435 35919 ft 448 kts 262°
2026-05-04 00:30 51.31114 -113.76044 35916 ft 449 kts 262°
2026-05-04 00:30 51.29442 -113.85667 35916 ft 450 kts 262°
2026-05-04 00:31 51.27767 -113.95306 35914 ft 450 kts 262°
2026-05-04 00:31 51.26080 -114.04954 35912 ft 451 kts 262°
2026-05-04 00:32 51.24379 -114.14603 35915 ft 452 kts 262°
2026-05-04 00:32 51.22666 -114.24266 35920 ft 453 kts 262°
2026-05-04 00:33 51.20078 -114.38777 35934 ft 454 kts 262°
2026-05-04 00:34 51.18338 -114.48459 35898 ft 454 kts 261°
2026-05-04 00:34 51.16588 -114.58130 35936 ft 455 kts 261°
2026-05-04 00:35 51.14826 -114.67822 35933 ft 455 kts 261°
2026-05-04 00:35 51.13056 -114.77522 35934 ft 456 kts 261°
2026-05-04 00:36 51.11280 -114.87227 35924 ft 458 kts 261°
2026-05-04 00:36 51.09485 -114.96950 35918 ft 457 kts 260°
2026-05-04 00:37 51.07682 -115.06665 35910 ft 458 kts 260°
2026-05-04 00:37 51.05873 -115.16398 35908 ft 459 kts 260°
2026-05-04 00:38 51.04055 -115.26144 35913 ft 460 kts 260°
2026-05-04 00:38 51.03147 -115.30971 35910 ft 448 kts 260°
2026-05-04 00:38 51.02269 -115.35581 35917 ft 440 kts 260°
2026-05-04 00:39 51.00505 -115.44839 35927 ft 428 kts 260°
2026-05-04 00:39 50.98810 -115.53739 35929 ft 418 kts 260°
2026-05-04 00:40 50.97402 -115.61128 35939 ft 417 kts 260°
2026-05-04 00:40 50.95440 -115.71351 35939 ft 416 kts 260°
2026-05-04 00:41 50.93742 -115.80141 35935 ft 417 kts 260°
2026-05-04 00:41 50.92039 -115.88931 35912 ft 418 kts 259°
2026-05-04 00:42 50.90600 -115.96310 35917 ft 419 kts 259°
2026-05-04 00:42 50.88883 -116.05056 35918 ft 419 kts 259°
2026-05-04 00:43 50.87157 -116.13867 35916 ft 419 kts 259°
2026-05-04 00:43 50.85419 -116.22676 35917 ft 419 kts 259°
2026-05-04 00:44 50.83663 -116.31488 35897 ft 421 kts 259°
2026-05-04 00:44 50.81903 -116.40325 35908 ft 422 kts 259°
2026-05-04 00:45 50.80133 -116.49182 35936 ft 423 kts 258°
2026-05-04 00:45 50.78345 -116.58060 35945 ft 424 kts 258°
2026-05-04 00:46 50.76548 -116.66927 35961 ft 423 kts 258°
2026-05-04 00:46 50.74742 -116.75779 35946 ft 424 kts 258°
2026-05-04 00:47 50.72932 -116.84635 35951 ft 424 kts 258°
2026-05-04 00:47 50.71120 -116.93504 35957 ft 424 kts 258°
2026-05-04 00:48 50.69300 -117.02380 35947 ft 425 kts 258°
2026-05-04 00:48 50.67466 -117.11244 35912 ft 425 kts 258°
2026-05-04 00:49 50.65622 -117.20116 35913 ft 426 kts 258°
2026-05-04 00:49 50.63769 -117.28991 35915 ft 427 kts 258°
2026-05-04 00:50 50.61909 -117.37884 35928 ft 428 kts 258°
2026-05-04 00:50 50.60053 -117.46722 35932 ft 428 kts 257°
2026-05-04 00:51 50.58165 -117.55623 35909 ft 429 kts 257°
2026-05-04 00:51 50.56284 -117.64499 35909 ft 429 kts 258°
2026-05-04 00:52 50.54390 -117.73433 35913 ft 431 kts 257°
2026-05-04 00:52 50.52472 -117.82363 35908 ft 431 kts 257°
2026-05-04 00:53 50.50554 -117.91293 35916 ft 432 kts 257°
2026-05-04 00:53 50.48630 -118.00226 35900 ft 432 kts 257°
2026-05-04 00:54 50.46686 -118.09172 35907 ft 433 kts 257°
2026-05-04 00:54 50.44734 -118.18134 35925 ft 434 kts 257°
2026-05-04 00:55 50.42765 -118.27091 35920 ft 435 kts 257°
2026-05-04 00:55 50.40796 -118.36053 35943 ft 436 kts 257°
2026-05-04 00:56 50.38821 -118.45005 35938 ft 434 kts 257°
2026-05-04 00:56 50.36835 -118.53943 35927 ft 434 kts 257°
2026-05-04 00:57 50.34844 -118.62890 35933 ft 435 kts 257°
2026-05-04 00:57 50.32861 -118.71768 35926 ft 435 kts 257°
2026-05-04 00:58 50.30837 -118.80765 35919 ft 436 kts 257°
2026-05-04 00:58 50.28823 -118.89709 35907 ft 437 kts 257°
2026-05-04 00:59 50.26793 -118.98672 35909 ft 438 kts 256°
2026-05-04 00:59 50.24758 -119.07593 35913 ft 439 kts 256°
2026-05-04 01:00 50.22697 -119.16595 35903 ft 440 kts 257°
2026-05-04 01:00 50.20629 -119.25599 35888 ft 441 kts 257°
2026-05-04 01:01 50.18551 -119.34610 35875 ft 442 kts 257°
2026-05-04 01:01 50.16463 -119.43659 35887 ft 444 kts 257°
2026-05-04 01:02 50.14359 -119.52717 35884 ft 445 kts 257°
2026-05-04 01:02 50.12243 -119.61779 35892 ft 445 kts 257°
2026-05-04 01:03 50.10117 -119.70836 35869 ft 445 kts 257°
2026-05-04 01:03 50.07986 -119.79895 35873 ft 446 kts 257°
2026-05-04 01:04 50.05846 -119.88981 35891 ft 447 kts 257°
2026-05-04 01:04 50.03699 -119.98059 35907 ft 447 kts 257°
2026-05-04 01:05 50.01542 -120.07136 35882 ft 448 kts 256°
2026-05-04 01:05 49.99365 -120.16227 35897 ft 449 kts 256°
2026-05-04 01:06 49.97173 -120.25335 35909 ft 451 kts 256°
2026-05-04 01:06 49.94961 -120.34456 35913 ft 452 kts 256°
2026-05-04 01:07 49.92738 -120.43604 35413 ft 456 kts 256°
2026-05-04 01:07 49.91622 -120.48207 34826 ft 455 kts 256°
2026-05-04 01:07 49.90510 -120.52784 34291 ft 452 kts 256°
2026-05-04 01:07 49.89398 -120.57343 33692 ft 451 kts 256°
2026-05-04 01:08 49.88286 -120.61885 33099 ft 449 kts 255°
2026-05-04 01:08 49.87180 -120.66395 32518 ft 446 kts 255°
2026-05-04 01:08 49.86078 -120.70885 31923 ft 444 kts 255°
2026-05-04 01:08 49.84980 -120.75347 31325 ft 442 kts 254°
2026-05-04 01:09 49.83884 -120.79790 30716 ft 441 kts 253°
2026-05-04 01:09 49.82792 -120.84210 30111 ft 438 kts 253°
2026-05-04 01:09 49.81705 -120.88612 29447 ft 436 kts 253°
2026-05-04 01:09 49.80627 -120.92970 28893 ft 431 kts 253°
2026-05-04 01:10 49.79554 -120.97291 28303 ft 428 kts 253°
2026-05-04 01:10 49.78487 -121.01568 27733 ft 424 kts 252°
2026-05-04 01:10 49.77428 -121.05806 27170 ft 421 kts 252°
2026-05-04 01:10 49.76374 -121.10014 26606 ft 418 kts 252°
2026-05-04 01:11 49.75329 -121.14187 26036 ft 415 kts 252°
2026-05-04 01:11 49.74289 -121.18331 25491 ft 412 kts 252°
2026-05-04 01:11 49.73258 -121.22435 24973 ft 408 kts 252°
2026-05-04 01:11 49.72230 -121.26522 24461 ft 405 kts 252°
2026-05-04 01:12 49.71213 -121.30561 23941 ft 402 kts 252°
2026-05-04 01:12 49.70217 -121.34516 23465 ft 399 kts 252°
2026-05-04 01:12 49.69210 -121.38494 22932 ft 396 kts 252°
2026-05-04 01:12 49.68209 -121.42429 22472 ft 392 kts 252°
2026-05-04 01:13 49.67213 -121.46339 22004 ft 388 kts 252°
2026-05-04 01:13 49.66229 -121.50197 21550 ft 385 kts 251°
2026-05-04 01:13 49.65251 -121.54018 21086 ft 382 kts 251°
2026-05-04 01:13 49.64279 -121.57813 20632 ft 379 kts 251°
2026-05-04 01:14 49.63315 -121.61586 20163 ft 377 kts 251°
2026-05-04 01:14 49.62354 -121.65350 19692 ft 376 kts 251°
2026-05-04 01:14 49.61398 -121.69098 19193 ft 375 kts 251°
2026-05-04 01:14 49.60438 -121.72843 18717 ft 375 kts 251°
2026-05-04 01:15 49.59478 -121.76578 18236 ft 374 kts 251°
2026-05-04 01:15 49.58524 -121.80281 17815 ft 371 kts 250°
2026-05-04 01:15 49.57574 -121.83952 17334 ft 368 kts 250°
2026-05-04 01:15 49.56626 -121.87603 16864 ft 366 kts 250°
2026-05-04 01:16 49.55683 -121.91235 16390 ft 364 kts 250°
2026-05-04 01:16 49.54746 -121.94842 15927 ft 362 kts 250°
2026-05-04 01:16 49.53811 -121.98436 15463 ft 361 kts 250°
2026-05-04 01:16 49.52877 -122.02015 14998 ft 360 kts 250°
2026-05-04 01:17 49.51847 -122.05462 14527 ft 359 kts 241°
2026-05-04 01:17 49.50547 -122.08731 14059 ft 358 kts 239°
2026-05-04 01:17 49.49237 -122.11992 13551 ft 358 kts 238°
2026-05-04 01:17 49.48351 -122.14193 13191 ft 358 kts 239°
2026-05-04 01:18 49.46618 -122.18490 12633 ft 353 kts 239°
2026-05-04 01:18 49.45356 -122.21649 12512 ft 341 kts 239°
2026-05-04 01:18 49.44145 -122.24708 12377 ft 329 kts 240°
2026-05-04 01:18 49.42974 -122.27666 12247 ft 318 kts 240°
2026-05-04 01:19 49.41839 -122.30528 12111 ft 310 kts 239°
2026-05-04 01:19 49.40715 -122.33358 12026 ft 309 kts 239°
2026-05-04 01:19 49.39449 -122.36037 11799 ft 312 kts 230°
2026-05-04 01:19 49.38014 -122.38560 11390 ft 312 kts 230°
2026-05-04 01:20 49.36587 -122.41025 11106 ft 308 kts 229°
2026-05-04 01:20 49.35168 -122.43463 10790 ft 305 kts 229°
2026-05-04 01:20 49.33756 -122.45888 10434 ft 304 kts 229°
2026-05-04 01:20 49.32353 -122.48297 10096 ft 302 kts 229°
2026-05-04 01:21 49.30961 -122.50654 9937 ft 292 kts 229°
2026-05-04 01:21 49.29615 -122.52917 9808 ft 282 kts 229°
2026-05-04 01:21 49.28305 -122.55118 9538 ft 278 kts 229°
2026-05-04 01:21 49.27015 -122.57308 9185 ft 276 kts 229°
2026-05-04 01:22 49.25733 -122.59492 8844 ft 274 kts 229°
2026-05-04 01:22 49.24466 -122.61651 8483 ft 273 kts 229°
2026-05-04 01:22 49.23222 -122.63772 8247 ft 267 kts 229°
2026-05-04 01:22 49.22012 -122.65833 8111 ft 251 kts 229°
2026-05-04 01:23 49.20888 -122.67797 7797 ft 241 kts 234°
2026-05-04 01:23 49.20019 -122.69954 7395 ft 236 kts 240°
2026-05-04 01:23 49.19198 -122.72127 7012 ft 236 kts 240°
2026-05-04 01:23 49.18372 -122.74303 6653 ft 237 kts 240°
2026-05-04 01:24 49.17553 -122.76456 6297 ft 231 kts 240°
2026-05-04 01:24 49.16750 -122.78565 5992 ft 228 kts 240°
2026-05-04 01:24 49.16187 -122.80780 5620 ft 223 kts 261°
2026-05-04 01:24 49.16227 -122.83081 5245 ft 212 kts 281°
2026-05-04 01:25 49.16398 -122.84532 5004 ft 207 kts 281°
2026-05-04 01:25 49.16733 -122.87361 4513 ft 198 kts 280°
2026-05-04 01:25 49.16893 -122.88719 4258 ft 194 kts 280°
2026-05-04 01:25 49.17127 -122.90718 3894 ft 189 kts 280°
2026-05-04 01:26 49.17355 -122.92671 3519 ft 184 kts 280°
2026-05-04 01:26 49.17574 -122.94553 3161 ft 175 kts 281°
2026-05-04 01:26 49.17782 -122.96337 2756 ft 164 kts 280°
2026-05-04 01:26 49.17976 -122.98008 2408 ft 157 kts 281°
2026-05-04 01:27 49.18164 -122.99626 2156 ft 152 kts 281°
2026-05-04 01:27 49.18344 -123.01176 1958 ft 148 kts 281°
2026-05-04 01:27 49.18523 -123.02720 1752 ft 146 kts 281°
2026-05-04 01:27 49.18699 -123.04247 1555 ft 147 kts 280°
2026-05-04 01:28 49.18882 -123.05831 1350 ft 152 kts 280°
2026-05-04 01:28 49.19068 -123.07440 1158 ft 155 kts 280°
2026-05-04 01:28 49.19254 -123.09053 955 ft 154 kts 279°
2026-05-04 01:28 49.19439 -123.10658 744 ft 149 kts 280°
2026-05-04 01:29 49.19616 -123.12196 562 ft 145 kts 280°
2026-05-04 01:29 49.19788 -123.13699 363 ft 142 kts 284°
2026-05-04 01:29 49.19957 -123.15190 197 ft 141 kts 283°
2026-05-04 01:29 49.20118 -123.16616 39 ft 131 kts 283°
2026-05-04 01:30 49.20258 -123.17764 15 ft 71 kts 279°
2026-05-04 01:30 49.20291 -123.18085 19 ft 10 kts 280°
2026-05-04 01:30 49.20306 -123.18259 19 ft 18 kts 275°
2026-05-04 01:30 49.20300 -123.18456 19 ft 19 kts 260°
2026-05-04 01:31 49.20261 -123.18659 19 ft 21 kts 250°
2026-05-04 01:31 49.20234 -123.18760 18 ft 9 kts 248°
2026-05-04 01:31 49.20202 -123.18855 18 ft 11 kts 222°
2026-05-04 01:31 49.20160 -123.18809 18 ft 8 kts 103°
2026-05-04 01:32 49.20148 -123.18711 18 ft 10 kts 100°
2026-05-04 01:32 49.20136 -123.18615 18 ft 9 kts 99°
2026-05-04 01:32 49.20119 -123.18521 18 ft 9 kts 124°
2026-05-04 01:32 49.20067 -123.18506 17 ft 8 kts 189°
2026-05-04 01:33 49.19997 -123.18524 17 ft 13 kts 189°
2026-05-04 01:33 49.19899 -123.18550 17 ft 14 kts 190°
2026-05-04 01:33 49.19807 -123.18573 17 ft 13 kts 189°
2026-05-04 01:33 49.19734 -123.18626 18 ft 10 kts 218°
2026-05-04 01:34 49.19712 -123.18625 19 ft 2 kts 124°
2026-05-04 01:34 49.19709 -123.18606 17 ft 1 kts 100°
2026-05-04 01:34 49.19705 -123.18574 17 ft 5 kts 111°
2026-05-04 01:34 49.19682 -123.18555 17 ft 3 kts 176°
2026-05-04 01:35 49.19654 -123.18564 17 ft 4 kts 193°
2026-05-04 01:35 49.19642 -123.18567 18 ft 0 kts 188°